Location: Crescent
(42.8242°N, 73.7329°W)
Time: 07:11:37
(UTC+00:00)

Tiros 1 - Pass Details

Date: 21 February 2026
Orbit: 618 x 649 km, 48.4° (Epoch: 9 March)

Event Time Altitude Azimuth Distance (km) Brightness Sun altitude
Rises 14:16:35 0° 272° (W) 2,912 10.1 23.9°
Reaches altitude 10° 14:19:01 10° 279° (W) 2,000 9.3 24.2°
Maximum altitude 14:23:24 43° 352° (N) 873 7.8 24.8°
Drops below altitude 10° 14:27:46 10° 65° (ENE) 1,987 10.0 25.4°
Sets 14:30:10 0° 72° (ENE) 2,891 10.8 25.7°
